FW7595 Weather Reports


time (UTC)temp
C
wind
direction
speed
KPH
gust
KPH
rain 1hr
cm
rain 24hr
cm
rain mn
cm
humidity
%
barometer
mb
20260503220049 18 291 1.6 11.3 0.00 0.00 0.00 62 1011.1
20260503214548 18 257 1.6 9.7 0.00 0.00 0.00 63 1011.1
20260503213052 18 259 1.6 16.1 0.00 0.00 0.00 65 1011.2
20260503211547 19 273 1.6 9.7 0.00 0.00 0.00 65 1011.3
20260503210047 19 292 1.6 6.4 0.00 0.00 0.00 65 1011.3
20260503204549 19 177 1.6 8.0 0.00 0.00 0.00 65 1011.3
20260503203046 19 247 1.6 6.4 0.00 0.00 0.00 65 1011.6
20260503201546 19 267 1.6 4.8 0.00 0.00 0.00 66 1011.7
20260503200047 19 277 3.2 11.3 0.00 0.00 0.00 64 1011.8
20260503194549 20 281 1.6 8.0 0.00 0.00 0.00 63 1012.0
20260503193044 20 281 3.2 4.8 0.00 0.00 0.00 63 1012.3
20260503191539 18 279 1.6 4.8 0.00 0.00 0.00 70 1012.3
20260503190043 17 184 1.6 11.3 0.00 0.00 0.00 73 1012.5
20260503184529 16 290 1.6 6.4 0.00 0.00 0.00 75 1012.6
20260503183028 15 265 0.0 4.8 0.00 0.00 0.00 78 1012.7
20260503181528 15 292 0.0 6.4 0.00 0.00 0.00 79 1012.8
20260503180027 16 292 0.0 3.2 0.00 0.00 0.00 79 1012.7
20260503174528 16 259 1.6 4.8 0.00 0.00 0.00 77 1012.7
20260503173025 16 259 1.6 6.4 0.00 0.00 0.00 76 1012.4
20260503171523 16 131 0.0 4.8 0.00 0.00 0.00 77 1012.4
20260503081545 14 265 1.6 6.4 0.00 0.00 0.00 87 1011.3
20260503071540 14 186 1.6 4.8 0.00 0.00 0.00 86 1011.2
20260503054532 15 272 0.0 6.4 0.00 0.00 0.00 83 1010.7
20260503053026 15 278 1.6 8.0 0.00 0.00 0.00 82 1010.8
20260503051524 15 290 3.2 8.0 0.00 0.00 0.00 82 1010.8
20260503050025 15 275 4.8 9.7 0.00 0.00 0.00 82 1010.8
20260503044527 15 288 1.6 8.0 0.00 0.00 0.00 81 1010.7
20260503043024 15 276 3.2 9.7 0.00 0.00 0.00 80 1010.7
20260503041524 15 277 3.2 11.3 0.00 0.00 0.00 79 1010.3
20260503040024 16 275 1.6 6.4 0.00 0.00 0.00 78 1010.0
20260503034523 16 269 3.2 11.3 0.00 0.00 0.00 77 1009.7
20260503033027 16 272 1.6 9.7 0.00 0.00 0.00 75 1009.4
20260503031522 16 272 1.6 8.0 0.00 0.00 0.00 75 1009.3
20260503030021 17 273 3.2 12.9 0.00 0.00 0.00 74 1009.0
20260503024622 17 277 1.6 11.3 0.00 0.00 0.00 72 1008.8
20260503023021 18 265 1.6 6.4 0.00 0.00 0.00 68 1008.6
20260503021519 20 253 0.0 8.0 0.00 0.00 0.00 65 1008.3
20260503020019 21 227 1.6 6.4 0.00 0.00 0.00 62 1008.2
20260503014518 21 294 1.6 6.4 0.00 0.00 0.00 61 1008.0
20260503013021 22 269 3.2 9.7 0.00 0.00 0.00 58 1008.0
20260503011518 23 273 1.6 6.4 0.00 0.00 0.00 55 1008.0
20260503010017 23 282 1.6 8.0 0.00 0.00 0.00 55 1008.0
20260503004515 23 281 1.6 11.3 0.00 0.00 0.00 56 1008.1
20260503003035 23 291 1.6 12.9 0.00 0.00 0.00 57 1008.3
20260503001522 23 271 6.4 12.9 0.00 0.00 0.00 57 1008.3
20260503000016 23 278 3.2 12.9 0.00 0.00 0.00 57 1008.3
20260502234515 23 292 1.6 16.1 0.00 0.00 0.00 57 1008.2
20260502233020 23 286 4.8 16.1 0.00 0.00 0.00 58 1008.2
20260502231511 23 277 4.8 14.5 0.00 0.00 0.00 56 1008.3
20260502230010 23 287 3.2 16.1 0.00 0.00 0.00 56 1008.6
20260502224506 23 256 6.4 19.3 0.00 0.00 0.00 57 1008.8
20260502223013 24 290 3.2 19.3 0.00 0.00 0.00 56 1009.2
20260502221502 23 267 4.8 17.7 0.00 0.00 0.00 57 1009.2